TimeAEDT,TemperatureF,Dew PointF,Humidity,Sea Level PressureIn,VisibilityMPH,Wind Direction,Wind SpeedMPH,Gust SpeedMPH,PrecipitationIn,Events,Conditions,WindDirDegrees,DateUTC
12:00 AM,69,31,14,30.05,,SW,13.8,,,,,220,2013-10-17 13:00:00
12:00 AM,69.8,30.2,23,30.04,6.2,SSW,13.8,-,N/A,,Scattered Clouds,210,2013-10-17 13:00:00
12:13 AM,69.8,26.6,20,30.04,3.7,SSW,13.8,-,N/A,,Mostly Cloudy,200,2013-10-17 13:13:00
12:30 AM,69.8,24.8,18,30.04,3.1,South,13.8,-,N/A,,Scattered Clouds,190,2013-10-17 13:30:00
12:50 AM,68.0,41.0,37,30.06,3.7,South,19.6,31.1,N/A,,Scattered Clouds,180,2013-10-17 13:50:00
1:00 AM,68.0,41.0,37,30.06,3.1,South,23.0,-,N/A,,Mostly Cloudy,180,2013-10-17 14:00:00
1:30 AM,66.2,37.4,35,30.09,4.3,South,20.7,-,N/A,,Mostly Cloudy,190,2013-10-17 14:30:00
1:45 AM,66.2,30.2,26,30.09,4.3,South,21.9,33.4,N/A,,Mostly Cloudy,180,2013-10-17 14:45:00
2:00 AM,65,28,14,30.10,,South,24.2,,,,,170,2013-10-17 15:00:00
2:00 AM,66.2,28.4,24,30.09,5.0,South,24.2,-,N/A,,Scattered Clouds,170,2013-10-17 15:00:00
2:02 AM,64.4,28.4,26,30.09,5.0,South,21.9,33.4,N/A,,Scattered Clouds,170,2013-10-17 15:02:00
2:05 AM,64.4,30.2,28,30.09,5.0,South,20.7,33.4,N/A,,Scattered Clouds,180,2013-10-17 15:05:00
2:30 AM,64.4,30.2,28,30.12,5.6,South,21.9,-,N/A,,Unknown,180,2013-10-17 15:30:00
3:00 AM,64,30,17,30.14,,South,21.9,,,,,190,2013-10-17 16:00:00
3:00 AM,64.4,30.2,28,30.12,6.2,South,21.9,-,N/A,,Unknown,190,2013-10-17 16:00:00
3:30 AM,62.6,30.2,30,30.12,6.2,South,21.9,-,N/A,,Scattered Clouds,190,2013-10-17 16:30:00
4:00 AM,62.6,32.0,32,30.15,6.2,South,15.0,-,N/A,,Scattered Clouds,180,2013-10-17 17:00:00
4:30 AM,60.8,30.2,31,30.15,6.2,South,15.0,-,N/A,,Mostly Cloudy,190,2013-10-17 17:30:00
5:00 AM,62,30,19,30.18,,South,16.1,,,,,190,2013-10-17 18:00:00
5:00 AM,62.6,30.2,30,30.15,6.2,South,16.1,-,N/A,,Scattered Clouds,190,2013-10-17 18:00:00
5:30 AM,60.8,30.2,31,30.18,6.2,South,13.8,-,N/A,,Scattered Clouds,190,2013-10-17 18:30:00
6:00 AM,61,31,21,30.21,,South,13.8,,,,Overcast,190,2013-10-17 19:00:00
6:00 AM,60.8,30.2,31,30.18,5.0,South,13.8,-,N/A,,Mostly Cloudy,190,2013-10-17 19:00:00
6:30 AM,60.8,33.8,36,30.21,5.0,South,11.5,-,N/A,,Smoke,190,2013-10-17 19:30:00
7:00 AM,62.6,50.0,63,30.21,6.2,SE,18.4,-,N/A,,Smoke,130,2013-10-17 20:00:00
7:30 AM,62.6,50.0,63,30.21,6.2,SE,10.4,-,N/A,,Smoke,140,2013-10-17 20:30:00
8:00 AM,62.6,48.2,59,30.24,6.2,SSE,15.0,-,N/A,,Smoke,160,2013-10-17 21:00:00
8:30 AM,62.6,48.2,59,30.24,6.2,SSE,15.0,-,N/A,,Smoke,150,2013-10-17 21:30:00
9:00 AM,64,48,45,30.27,,South,13.8,,,,Overcast,170,2013-10-17 22:00:00
9:00 AM,64.4,48.2,56,30.24,6.2,South,13.8,-,N/A,Rain,Light Smoke,170,2013-10-17 22:00:00
9:30 AM,60.8,48.2,63,30.27,5.6,ESE,9.2,-,N/A,Rain,Light Smoke,120,2013-10-17 22:30:00
10:00 AM,62.6,48.2,59,30.27,6.2,SE,16.1,-,N/A,,Smoke,130,2013-10-17 23:00:00
10:30 AM,64.4,46.4,52,30.30,6.2,SE,17.3,-,N/A,,Smoke,130,2013-10-17 23:30:00
11:00 AM,65,45,37,30.31,,ESE,16.1,,,,,120,2013-10-18 00:00:00
11:00 AM,64.4,44.6,49,30.30,6.2,ESE,16.1,-,N/A,,Smoke,120,2013-10-18 00:00:00
11:30 AM,66.2,44.6,46,30.30,6.2,SE,17.3,-,N/A,,Smoke,130,2013-10-18 00:30:00
12:00 PM,66,44,33,30.31,,SE,17.3,,,,,140,2013-10-18 01:00:00
12:00 PM,66.2,44.6,46,30.30,6.2,SE,17.3,-,N/A,,Smoke,140,2013-10-18 01:00:00
12:30 PM,66.2,44.6,46,30.30,6.2,ESE,16.1,-,N/A,,Smoke,120,2013-10-18 01:30:00
1:00 PM,66.2,44.6,46,30.30,6.2,ESE,15.0,-,N/A,,Smoke,120,2013-10-18 02:00:00
1:30 PM,66.2,42.8,43,30.27,6.2,ESE,15.0,-,N/A,,Smoke,110,2013-10-18 02:30:00
2:00 PM,66,44,34,30.30,,ESE,15.0,,,,,120,2013-10-18 03:00:00
2:00 PM,66.2,44.6,46,30.30,6.2,ESE,15.0,-,N/A,,Smoke,120,2013-10-18 03:00:00
2:30 PM,66.2,44.6,46,30.27,6.2,ESE,16.1,-,N/A,,Mostly Cloudy,120,2013-10-18 03:30:00
3:00 PM,64.4,42.8,45,30.27,6.2,East,12.7,-,N/A,,Scattered Clouds,100,2013-10-18 04:00:00
3:30 PM,66.2,42.8,43,30.27,6.2,ESE,15.0,-,N/A,,Scattered Clouds,120,2013-10-18 04:30:00
4:00 PM,66.2,44.6,46,30.27,6.2,SE,13.8,-,N/A,,Mostly Cloudy,130,2013-10-18 05:00:00
4:30 PM,66.2,42.8,43,30.27,6.2,SE,15.0,-,N/A,,Overcast,130,2013-10-18 05:30:00
5:00 PM,65,45,36,30.28,,East,10.4,,,,,100,2013-10-18 06:00:00
5:00 PM,64.4,44.6,49,30.27,6.2,East,10.4,-,N/A,,Overcast,100,2013-10-18 06:00:00
5:30 PM,64.4,46.4,52,30.27,6.2,East,10.4,-,N/A,,Overcast,100,2013-10-18 06:30:00
6:00 PM,64,46,41,30.30,,ESE,10.4,,,,,110,2013-10-18 07:00:00
6:00 PM,64.4,46.4,52,30.27,6.2,ESE,10.4,-,N/A,,Overcast,110,2013-10-18 07:00:00
6:30 PM,64.4,44.6,49,30.30,6.2,East,8.1,-,N/A,,Overcast,80,2013-10-18 07:30:00
7:00 PM,64.4,44.6,49,30.30,6.2,East,6.9,-,N/A,,Overcast,90,2013-10-18 08:00:00
7:30 PM,64.4,44.6,49,30.30,6.2,East,5.8,-,N/A,,Overcast,90,2013-10-18 08:30:00
8:00 PM,61,46,48,30.33,,ENE,4.6,,,,,60,2013-10-18 09:00:00
8:00 PM,60.8,46.4,59,30.33,6.2,ENE,4.6,-,N/A,,Mostly Cloudy,60,2013-10-18 09:00:00
8:30 PM,59.0,48.2,67,30.33,6.2,ENE,4.6,-,N/A,,Unknown,60,2013-10-18 09:30:00
9:00 PM,55,47,65,30.35,,ENE,3.5,,,,,70,2013-10-18 10:00:00
9:00 PM,55.4,46.4,72,30.33,6.2,ENE,3.5,-,N/A,,Unknown,70,2013-10-18 10:00:00
9:30 PM,53.6,46.4,77,30.33,6.2,Calm,Calm,-,N/A,,Unknown,0,2013-10-18 10:30:00
10:00 PM,51.8,46.4,82,30.33,6.2,Calm,Calm,-,N/A,,Unknown,0,2013-10-18 11:00:00
10:10 PM,51.8,46.4,82,30.33,3.7,Calm,Calm,-,N/A,,Unknown,0,2013-10-18 11:10:00
10:30 PM,50.0,46.4,87,30.33,3.1,Calm,Calm,-,N/A,,Unknown,0,2013-10-18 11:30:00
10:52 PM,50.0,46.4,87,30.33,5.0,Calm,Calm,-,N/A,,Unknown,0,2013-10-18 11:52:00
10:59 PM,50.0,46.4,87,30.33,3.7,Calm,Calm,-,N/A,,Unknown,0,2013-10-18 11:59:00
11:00 PM,50,46,82,30.36,,Calm,Calm,,,,,,2013-10-18 12:00:00
11:00 PM,50.0,46.4,87,30.33,3.7,Calm,Calm,-,N/A,,Unknown,0,2013-10-18 12:00:00
11:15 PM,50.0,46.4,87,30.33,4.3,Calm,Calm,-,N/A,,Unknown,0,2013-10-18 12:15:00
11:30 PM,50.0,46.4,87,30.33,4.3,Calm,Calm,-,N/A,,Unknown,0,2013-10-18 12:30:00